{"data":{"norad_id":56919,"intl_designator":"2023-083AV","name":"STARLINK-5966","alt_names":[],"object_type":"PAYLOAD","status":"ACTIVE","operator":null,"country":"US","launch_date":"2023-06-12","launch_site_code":"AFETR","launch_vehicle":null,"mission":null,"orbit_class":"UNKNOWN","rcs_meters":null,"size_class":null,"mass_kg":null,"dimensions":null,"purposes":["comms"],"wikipedia_slug":null,"has_3d_model":false,"image_url":null,"decayed_at":null,"tle_current":{"epoch":"2026-05-24T22:33:38.026944Z","epoch_age_seconds":73561,"freshness":"FRESH","line1":"1 56919U 23083AV  26144.94002346 -.00000038  00000+0  81360-5 0  9995","line2":"2 56919  43.0027 359.7149 0001555 265.4605  94.6069 15.27581462163465","mean_motion":15.27581462,"eccentricity":0.0001555,"inclination_deg":43.0027,"raan_deg":359.7149,"arg_perigee_deg":265.4605,"mean_anomaly_deg":94.6069,"bstar":8.136e-6,"rev_number":16346,"period_min":94.266658493922,"perigee_km":481.977804532,"apogee_km":484.11163204639,"semimajor_km":6861.1817182892,"source":"CELESTRAK","updated_at":"2026-05-25T13:38:18.205761Z"}}}